Skip Page Navigation
NASA JPL Caltech
NASA Logo - Jet Propulsion Laboratory + View the NASA Portal
+ Center for Near-Earth Object Studies
JPL Home Earth Solar System Stars & Galaxies Technology
JPL Solar System Dynamics
BODIES ORBITS EPHEMERIDES TOOLS PHYSICAL DATA DISCOVERY FAQ SITE MAP
JPL Small-Body Database Browser
Search: [ help ]  
434513 (2005 SX134)
Classification: Main-belt Asteroid          SPK-ID: 2434513
Ephemeris | Orbit Diagram | Orbital Elements | Mission Design | Physical Parameters | Discovery Circumstances | Close-Approach Data ]

[ hide orbit diagram ]

For accurate long-term ephemerides, please instead use our Horizons system.This orbit viewer was implemented using two-body methods, and hence should not be used for determining accurate long-term trajectories (over several years or decades) or planetary encounter circumstances.


[ revert to old Java-based viewer ]

Orbital Elements at Epoch 2459000.5 (2020-May-31.0) TDB
Reference: JPL 11 (heliocentric ecliptic J2000)
 Element Value Uncertainty (1-sigma)   Units 
e .3443661202699763 7.0197e-08  
a 3.052755626346895 7.9775e-08 au
q 2.001490015169473 2.3227e-07 au
i 16.58065511208958 2.5177e-05 deg
node 172.6867024594552 4.8918e-05 deg
peri 112.1814593358799 8.4849e-05 deg
M 298.3613478223909 6.5701e-05 deg
tp 2459334.070103921186
(2021-Apr-29.57010392)
0.000367 TDB
period 1948.213226103751
5.33
7.6366e-05
2.091e-07
d
yr
n .1847847017854237 7.2432e-09 deg/d
Q 4.104021237524316 1.0725e-07 au
  Orbit Determination Parameters
   # obs. used (total)      72  
   data-arc span      4588 days (12.56 yr)  
   first obs. used      2004-03-29  
   last obs. used      2016-10-20  
   planetary ephem.      DE431  
   SB-pert. ephem.      SB431-N16  
   condition code      0  
   norm. resid. RMS      .75665  
   source      ORB  
   producer      Otto Matic  
   solution date      2018-Oct-04 12:12:35  

Additional Information
 Earth MOID = 1.05209 au 
 Jupiter MOID = 1.64958 au 
 T_jup = 3.083 
[ show covariance matrix ]

Ephemeris | Orbit Diagram | Orbital Elements | Mission Design | Physical Parameters | Discovery Circumstances | Close-Approach Data ]

Physical Parameter Table
Parameter Symbol Value Units Sigma Reference Notes
absolute magnitude H 17.2   n/a MPO456072  
diameter diameter 1.705 km 0.429 urn:nasa:pds:neowise_diameters_albedos::2.0[mainbelt] (http://adsabs.harvard.edu/abs/2011ApJ...741...68M)  

434513 (2005 SX134)          Discovered 2005-Aug-30 by Spacewatch at Kitt Peak
Reference: Last Updated: 2015-06-04

[ show close-approach data ]
Alternate Designations
 2005 SX134 = 2010 DA66 
Ephemeris | Orbit Diagram | Orbital Elements | Mission Design | Physical Parameters | Discovery Circumstances | Close-Approach Data ]
ABOUT SSD CREDITS/AWARDS PRIVACY/COPYRIGHT GLOSSARY LINKS
FirstGov 2020-Jul-07 03:22 UT
(server date/time)  
NASA Home Page
Site Manager:   Ryan S. Park
Webmaster  Alan B. Chamberlin